[[{"header":{"parameterUnit":"m.s-1","parameterCategory":1,"la1":30.2991,"la2":30.254,"lo1":-89.0895,"lo2":-89.0444,"dy":0.0017,"dx":0.0017,"nx":28,"ny":28,"refTime":"2025-03-19T09:00:00:Z","depth":0,"parameterNumber":2,"parameterNumberName":"U-component_of_WINDS"},"data":[0,0,0,0,0,0,0,0,0,0,0,0,0,0,0,0,0,0,0,0,0,0,0,0,0,0,0,0,0,0,0,0,0,0,0,0,0,0,0,0,0,0,0,0,0,0,0,0,0,0,0,0,0,0,0,0,0,0,3.7293,3.7293,0,3.7334,3.7335,3.7335,3.7285,3.7284,3.7282,3.728,3.7321,3.7324,3.7326,0,0,0,0,0,0,0,0,0,0,0,0,0,3.717,3.7172,3.7292,3.7293,3.7294,3.7334,3.7335,3.7335,3.7286,3.7283,3.7281,3.7279,3.732,3.7323,3.7327,0,0,0,0,0,0,0,0,0,0,0,0,0,3.7218,3.7173,3.7292,3.7274,3.7273,3.7334,3.7335,3.7335,3.7286,3.7283,3.7281,3.7278,3.7319,3.7323,3.7327,3.7408,0,0,3.734,3.7342,0,0,0,0,0,0,0,0,3.7216,3.7223,3.7276,3.7275,3.7274,3.7302,3.7306,3.736,3.7287,3.7281,3.728,3.7277,3.7317,3.7321,3.7335,3.741,3.7412,3.734,3.7343,3.7345,3.7346,0,0,0,0,0,0,0,3.7212,3.7221,3.7309,3.7277,3.7276,3.7263,3.7267,3.7316,3.7314,3.7281,3.7278,3.7283,3.7315,3.7331,3.7335,3.7412,3.734,3.7344,3.7346,3.7348,3.7558,3.7561,0,0,0,0,0,0,3.7211,3.7218,3.7308,3.731,3.7237,3.7268,3.7272,3.7296,3.7313,3.7313,3.7286,3.7281,3.7325,3.733,3.7336,3.7433,3.7345,3.7348,3.7351,3.7555,3.7559,3.7562,0,0,0,0,0,0,3.7209,3.722,3.7306,3.7263,3.7273,3.7273,3.73,3.7298,3.7313,3.7316,3.7316,3.7302,3.7323,3.7331,3.7391,3.7434,3.735,3.7354,3.7552,3.7556,3.7561,3.7627,0,0,0,0,0,0,3.7205,3.7219,3.725,3.7264,3.7276,3.736,3.7302,3.7301,3.7321,3.7315,3.7331,3.7331,3.7321,3.7385,3.7395,3.7438,3.7357,3.7548,3.7554,3.7559,3.7621,3.7634,3.7644,0,0,0,0,0,3.7201,3.7266,3.7252,3.7263,3.7314,3.7363,3.7369,3.7357,3.7324,3.7355,3.7358,3.7331,3.7428,3.7392,3.7403,3.7448,3.7545,3.7552,3.7559,3.7616,3.7631,3.7644,0,0,0,0,0,0,3.7255,3.7268,3.7252,3.7323,3.7343,3.7354,3.7393,3.7373,3.7401,3.7394,3.7377,3.7382,3.7447,3.7453,3.7413,3.7528,3.7481,3.7491,3.7521,3.7535,3.7547,3.7543,3.7361,0,0,0,0,0,3.7276,3.7315,3.7323,3.7386,3.7396,3.7393,3.7414,3.7403,3.7422,3.7429,3.7436,3.7455,3.749,3.7513,3.7545,3.7623,3.7626,3.7659,3.7671,3.768,3.7688,3.773,3.7745,3.7585,3.7585,3.7585,0,0,3.7318,3.733,3.7355,3.7397,3.741,3.7451,3.74,3.7444,3.7474,3.7436,3.7494,3.75,3.752,3.759,3.7621,3.7597,3.7733,3.7689,3.7696,3.7699,3.7739,3.7754,3.7768,3.759,3.7589,3.7588,0,0,3.7416,3.7428,3.7482,3.7498,3.7519,3.7517,3.753,3.7546,3.7549,3.7607,3.7579,3.7615,3.7675,3.7691,3.7707,3.7813,3.779,3.7824,3.7884,3.7925,3.7938,3.7949,3.7987,3.8001,3.7833,3.7833,3.7833,0,3.7465,3.7525,3.7512,3.7559,3.7579,3.7548,3.7602,3.7617,3.7648,3.7663,3.7636,3.7713,3.7724,3.7797,3.7824,3.7838,3.7852,3.7822,3.7937,3.7948,3.7959,3.7995,3.8009,3.7837,3.7836,3.7836,3.7836,0,3.7585,3.7627,3.7668,3.77,3.7725,3.7775,3.777,3.7797,3.7784,3.7785,3.7846,3.7859,3.7894,3.7911,3.7898,3.7983,3.7968,3.794,3.7892,3.7978,3.8012,3.8026,3.7843,3.7841,3.784,3.7839,0,0,3.7715,3.7742,3.7757,3.7772,3.7795,3.7827,3.7877,3.7912,3.7935,3.7958,3.8,3.8053,3.8028,3.8046,3.8036,3.8072,3.8157,3.804,3.804,3.8061,3.8252,3.8272,3.8288,3.8142,3.8145,3.8147,3.825,0,3.7813,3.79,3.7891,3.7974,3.8013,3.7985,3.8029,3.8048,3.8051,3.8084,3.8087,3.8125,3.8089,3.81,3.8135,3.8139,3.8195,3.8132,3.818,3.8182,3.8175,3.8306,3.8327,3.8424,3.8263,3.8265,3.8267,0,3.7939,3.7968,3.8055,3.8073,3.8089,3.8129,3.8161,3.8194,3.8215,3.8215,3.8237,3.8221,3.8271,3.8224,3.8293,3.8251,3.827,3.8276,3.8279,3.8282,3.8229,3.8312,3.8454,3.8469,3.8287,3.8286,3.8284,0,3.8025,3.8086,3.8146,3.816,3.8183,3.8212,3.8222,3.8241,3.8264,3.8292,3.8306,3.834,3.8359,3.8385,3.8379,3.8345,3.8451,3.8402,3.8451,3.8452,3.8474,3.8472,3.862,3.8488,3.8488,3.8487,3.8487,0,3.8135,3.8189,3.8186,3.8223,3.8283,3.8273,3.8333,3.834,3.8358,3.8396,3.8374,3.841,3.84,3.8435,3.8431,3.849,3.8498,3.8499,3.8497,3.8501,3.8501,3.8513,3.8506,3.8491,3.849,3.849,3.8489,0,3.8241,3.8241,3.8305,3.8323,3.8329,3.8372,3.8387,3.8422,3.8424,3.8473,3.8483,3.8486,3.8528,3.8525,3.8571,3.8568,3.8641,3.8631,3.8634,3.8631,3.8681,3.8676,3.8841,3.8862,3.8716,3.8718,3.8719,0,3.8311,3.8352,3.8375,3.84,3.8413,3.8452,3.8475,3.8468,3.8493,3.8522,3.8553,3.8593,3.8624,3.8691,3.8697,3.8733,3.8724,3.8779,3.8729,3.8732,3.8725,3.8722,3.8726,3.8789,3.879,3.8792,3.8793,0,3.8435,3.8434,3.8468,3.8504,3.8532,3.856,3.8584,3.8606,3.86,3.863,3.8672,3.8697,3.8745,3.8785,3.8819,3.883,3.8811,3.8809,3.8822,3.8826,3.8826,3.8827,3.866,3.8805,3.8804,3.8803,3.8802,3.8802,3.8525,3.8561,3.8583,3.8623,3.8641,3.8665,3.87,3.8707,3.8742,3.8781,3.8775,3.8823,3.8845,3.8889,3.8904,3.8941,3.8921,3.8941,3.8945,3.895,3.8956,3.8821,3.8948,3.8947,3.8947,3.8947,3.8946,0,3.8648,3.8661,3.8698,3.8734,3.8766,3.8747,3.8774,3.8801,3.8844,3.8866,3.8898,3.8948,3.8987,3.8997,3.9035,3.9063,3.9055,3.9073,3.907,3.9073,3.8971,3.8956,3.9079,3.9079,3.9079,3.9079,3.9079,3.9079,3.8715,3.8775,3.8777,3.8846,3.8859,3.8906,3.8924,3.8946,3.8964,3.9021,3.9054,3.9061,3.9078,3.9118,3.9153,3.9155,3.917,3.9191,3.919,3.9094,3.908,3.9068,3.9053,3.9194,3.9195,3.9288,3.9289,3.929]},{"header":{"parameterUnit":"m.s-1","parameterCategory":1,"la1":30.2991,"la2":30.254,"lo1":-89.0895,"lo2":-89.0444,"dy":0.0017,"dx":0.0017,"nx":28,"ny":28,"refTime":"2025-03-19T09:00:00:Z","depth":0,"parameterNumber":3,"parameterNumberName":"V-component_of_WINDS"},"data":[0,0,0,0,0,0,0,0,0,0,0,0,0,0,0,0,0,0,0,0,0,0,0,0,0,0,0,0,0,0,0,0,0,0,0,0,0,0,0,0,0,0,0,0,0,0,0,0,0,0,0,0,0,0,0,0,0,0,-6.6449,-6.6451,0,-6.6606,-6.6607,-6.6609,-6.6564,-6.656,-6.6557,-6.6554,-6.6711,-6.6718,-6.6725,0,0,0,0,0,0,0,0,0,0,0,0,0,-6.6108,-6.6114,-6.6449,-6.6451,-6.6453,-6.6605,-6.6608,-6.661,-6.6564,-6.656,-6.6556,-6.6553,-6.6709,-6.6717,-6.6726,0,0,0,0,0,0,0,0,0,0,0,0,0,-6.6259,-6.6116,-6.6448,-6.6449,-6.645,-6.6605,-6.6608,-6.661,-6.6565,-6.656,-6.6555,-6.6551,-6.6706,-6.6716,-6.6727,-6.689,0,0,-6.676,-6.6765,0,0,0,0,0,0,0,0,-6.6251,-6.6272,-6.6447,-6.6449,-6.6451,-6.656,-6.6545,-6.6704,-6.6566,-6.6521,-6.6554,-6.6548,-6.6665,-6.6678,-6.6718,-6.6898,-6.6905,-6.6761,-6.6768,-6.6772,-6.6775,0,0,0,0,0,0,0,-6.624,-6.6265,-6.6511,-6.6449,-6.6452,-6.644,-6.6456,-6.6575,-6.6618,-6.6525,-6.6522,-6.6541,-6.6665,-6.6708,-6.6722,-6.6907,-6.6761,-6.677,-6.6777,-6.6781,-6.7229,-6.7234,0,0,0,0,0,0,-6.6229,-6.6256,-6.6506,-6.6515,-6.6337,-6.645,-6.6468,-6.653,-6.6617,-6.6625,-6.6545,-6.6538,-6.6692,-6.6709,-6.6727,-6.6924,-6.6772,-6.6782,-6.6788,-6.7223,-6.723,-6.7236,0,0,0,0,0,0,-6.6221,-6.6251,-6.6499,-6.6385,-6.6416,-6.6461,-6.6531,-6.6536,-6.6579,-6.6632,-6.6639,-6.6582,-6.6689,-6.6712,-6.6851,-6.6929,-6.6787,-6.6797,-6.7217,-6.7225,-6.7233,-6.732,0,0,0,0,0,0,-6.6212,-6.6249,-6.6312,-6.6387,-6.6422,-6.6621,-6.6536,-6.6542,-6.6598,-6.6591,-6.6668,-6.6676,-6.6687,-6.6835,-6.6861,-6.6941,-6.6805,-6.721,-6.7221,-6.723,-6.731,-6.733,-6.7347,0,0,0,0,0,-6.62,-6.6329,-6.6315,-6.6346,-6.6502,-6.6626,-6.6646,-6.6656,-6.6604,-6.6668,-6.6702,-6.6674,-6.6917,-6.6849,-6.6879,-6.6963,-6.7205,-6.7218,-6.7229,-6.7302,-6.7326,-6.7347,0,0,0,0,0,0,-6.6261,-6.6339,-6.6324,-6.6483,-6.6548,-6.6618,-6.6698,-6.6682,-6.6762,-6.6752,-6.6761,-6.6778,-6.6921,-6.6956,-6.688,-6.7126,-6.7053,-6.7072,-6.7098,-6.7122,-6.714,-6.7128,-6.6814,0,0,0,0,0,-6.6293,-6.6388,-6.6451,-6.6584,-6.6618,-6.6653,-6.6707,-6.671,-6.6777,-6.6805,-6.6849,-6.6915,-6.7006,-6.7066,-6.7152,-6.7315,-6.7332,-6.7388,-6.7407,-6.7421,-6.7437,-6.7526,-6.7552,-6.7276,-6.7276,-6.7275,0,0,-6.636,-6.6415,-6.6474,-6.6598,-6.6649,-6.6747,-6.6676,-6.6782,-6.6854,-6.682,-6.6954,-6.6989,-6.7064,-6.7215,-6.7284,-6.7249,-6.7517,-6.7437,-6.7448,-6.7456,-6.7542,-6.7568,-6.7591,-6.7284,-6.7283,-6.7281,0,0,-6.6532,-6.6583,-6.67,-6.6753,-6.6832,-6.6854,-6.6882,-6.6955,-6.6978,-6.7113,-6.709,-6.7175,-6.7332,-6.7386,-6.7434,-6.7628,-6.7605,-6.7656,-6.7751,-6.7838,-6.786,-6.7879,-6.7948,-6.7973,-6.7671,-6.7672,-6.7672,0,-6.6604,-6.6751,-6.6761,-6.687,-6.6925,-6.6901,-6.7019,-6.707,-6.7172,-6.7211,-6.717,-6.7367,-6.7415,-6.7579,-6.7627,-6.7667,-6.7699,-6.7646,-6.7856,-6.7876,-6.7894,-6.796,-6.7986,-6.7677,-6.7677,-6.7676,-6.7675,0,-6.6837,-6.6939,-6.7024,-6.7126,-6.719,-6.7303,-6.733,-6.7394,-6.7392,-6.7418,-6.7556,-6.7613,-6.7712,-6.7751,-6.7749,-6.7915,-6.7891,-6.7854,-6.778,-6.7926,-6.7988,-6.8013,-6.7685,-6.7683,-6.7682,-6.768,0,0,-6.705,-6.7157,-6.7188,-6.7234,-6.732,-6.7399,-6.7511,-6.7608,-6.7663,-6.7735,-6.7829,-6.7963,-6.7929,-6.7983,-6.7987,-6.8064,-6.8214,-6.8017,-6.8018,-6.8051,-6.8401,-6.8428,-6.8458,-6.8199,-6.8204,-6.8208,-6.8395,0,-6.7229,-6.7427,-6.744,-6.7618,-6.7713,-6.7692,-6.7789,-6.7852,-6.788,-6.7964,-6.7994,-6.8089,-6.8037,-6.807,-6.8145,-6.818,-6.8284,-6.8166,-6.8286,-6.829,-6.8267,-6.849,-6.8519,-6.8693,-6.8419,-6.8423,-6.8426,0,-6.7464,-6.7545,-6.7733,-6.7807,-6.7847,-6.7934,-6.8025,-6.8106,-6.8176,-6.8191,-6.8253,-6.8247,-6.8361,-6.8284,-6.8441,-6.8361,-6.8411,-6.8435,-6.8442,-6.8453,-6.8366,-6.8507,-6.8748,-6.8774,-6.8464,-6.8461,-6.8459,0,-6.7601,-6.7757,-6.789,-6.793,-6.8019,-6.8081,-6.812,-6.8187,-6.8245,-6.8324,-6.8361,-6.8452,-6.8502,-6.8572,-6.859,-6.8533,-6.8747,-6.8672,-6.8762,-6.8762,-6.8808,-6.8805,-6.906,-6.8841,-6.884,-6.884,-6.8839,0,-6.7799,-6.7915,-6.7953,-6.8034,-6.8164,-6.8177,-6.8305,-6.834,-6.84,-6.8488,-6.8474,-6.8557,-6.8576,-6.8662,-6.8677,-6.8805,-6.8827,-6.8842,-6.8845,-6.8843,-6.8842,-6.8876,-6.8864,-6.8847,-6.8845,-6.8844,-6.8843,0,-6.7973,-6.8003,-6.8147,-6.822,-6.8241,-6.8333,-6.8395,-6.8473,-6.85,-6.8612,-6.8639,-6.8681,-6.8782,-6.8807,-6.8927,-6.8937,-6.9088,-6.9079,-6.9064,-6.9064,-6.9153,-6.9144,-6.9439,-6.9479,-6.9233,-6.9236,-6.9238,0,-6.8098,-6.8187,-6.827,-6.8328,-6.8371,-6.8466,-6.8525,-6.8542,-6.8605,-6.8693,-6.8761,-6.886,-6.8941,-6.9103,-6.9144,-6.9235,-6.9228,-6.9326,-6.9242,-6.9238,-6.923,-6.9224,-6.9233,-6.9341,-6.9344,-6.9346,-6.9348,0,-6.8315,-6.8326,-6.8413,-6.8506,-6.8578,-6.8651,-6.8722,-6.877,-6.8797,-6.8868,-6.8972,-6.9034,-6.9158,-6.9257,-6.9349,-6.9389,-6.9373,-6.9374,-6.94,-6.9399,-6.9387,-6.9395,-6.9107,-6.9367,-6.9365,-6.9363,-6.9362,-6.9362,-6.8468,-6.8547,-6.8618,-6.8715,-6.877,-6.8837,-6.8914,-6.8952,-6.9039,-6.9141,-6.9146,-6.9259,-6.9328,-6.9451,-6.9497,-6.9585,-6.9555,-6.9592,-6.9602,-6.9611,-6.9619,-6.9374,-6.9602,-6.9601,-6.9601,-6.96,-6.96,0,-6.8685,-6.873,-6.882,-6.8919,-6.8996,-6.8976,-6.9053,-6.9118,-6.9218,-6.9285,-6.9365,-6.9484,-6.958,-6.9629,-6.9725,-6.9786,-6.9781,-6.981,-6.9806,-6.9815,-6.964,-6.9608,-6.9813,-6.9813,-6.9813,-6.9813,-6.9813,-6.9813,-6.8807,-6.8938,-6.8958,-6.9117,-6.9161,-6.9272,-6.9318,-6.9379,-6.9432,-6.9567,-6.9647,-6.9679,-6.9738,-6.9838,-6.9925,-6.9937,-6.9973,-7.0006,-7.0014,-6.9849,-6.9827,-6.9807,-6.9777,-7.0014,-7.0014,-7.0182,-7.0184,-7.0185]}]]